SCP
0 0 0 0 0 0 0 -0 -0 -0 -0 0 0 -0 -0 0 0 0 0 0 0 -0 -0 -0 -0 -0 -0 -0 0 0 0 0 0 0 0 0 0 0 0 0 -0 0 0 0 0 0 0 0 0
0 0 0 -0 0 0 0 -0 0 -0 0 0 0 -0 -0 0 0 0 0 0 0 -0 -0 -0 -0 -0 -0 -0 -0 -0 0 0 0 0 0 0 0 0 0 0 0 0 0 0 0 0 0 0 0
-0 -0 0 0 0 0 0 0 0 0 0 0 0 0 0 0 0 0 0 0 0 0 0 0 -0 0 0 0 0 0 0 0 0 0 0 0 0 0 0 0 0 0 0 0 0 0 0 0 0
-0 0 0 0 0 0 0 0 0 0 0 0 0 0 0 0 0 0 0 0 0 0 0 0 0 0 0 0 0 0 0 0 0 0 0 0 0 0 0 0 0 0 0 0 0 0 0 0 0
0 0 0 0 0 0 0 0 0 0 0 0 0 0 0 0 0 0 0 0 0 0 0 0 0 0 0 0 0 0 0 0 0 0 0 0 0 0 0 0 0 0 0 0 0 0 0 0 0
0 0 0 0 0 0 0 0 0 0 0 0 0 0 0 0 0 0 0 0 0 0 0 0 0 1 1 0 0 0 0 0 0 0 0 0 0 0 0 0 0 0 0 0 0 0 0 0 0
0 0 0 0 0 0 0 0 0 0 0 0 0 0 0 0 0 0 0 0 0 0 0 0 0 1 1 1 1 0 0 0 0 0 0 0 0 0 0 0 0 0 0 0 0 0 0 0 0
0 0 0 0 0 0 0 0 0 0 0 0 0 0 0 0 0 0 0 0 0 1 1 1 0 0 0 0 1 0 0 0 0 0 0 0 0 0 0 0 0 0 0 0 0 0 0 0 0
0 0 0 0 0 0 0 0 0 0 0 0 0 0 0 0 0 0 0 0 0 1 1 1 1 0 0 0 0 1 0 0 0 0 0 1 0 0 0 0 1 1 0 0 0 0 0 0 0
0 0 0 0 0 0 0 0 0 0 0 0 0 0 0 0 0 0 0 0 0 0 0 0 0 1 1 1 1 1 1 1 0 0 0 0 0 0 1 1 1 1 0 0 1 0 0 0 0
0 0 0 0 0 0 0 0 0 0 0 0 0 0 0 0 0 0 0 0 0 0 0 0 0 0 1 1 2 2 2 1 1 0 0 0 0 1 1 1 1 1 1 1 1 1 1 0 0
0 0 0 0 0 0 0 0 0 0 0 0 0 0 0 0 0 0 0 0 0 0 0 0 0 0 0 0 0 2 1 1 1 1 1 1 1 1 1 1 1 1 1 1 1 1 1 0 0
0 0 0 0 0 0 0 0 0 0 0 0 0 0 0 0 0 0 0 0 0 0 0 0 0 0 0 0 0 0 0 0 1 1 1 2 1 1 1 1 1 1 1 1 1 1 1 0 0
0 0 0 0 0 0 0 0 0 0 0 0 0 0 0 0 0 0 0 0 0 0 0 0 0 0 0 0 0 0 0 0 0 1 1 2 2 2 1 1 1 1 2 1 1 1 1 1 0
0 0 0 0 0 0 0 0 0 0 0 0 0 0 0 0 0 0 0 0 0 0 0 0 0 0 0 0 0 0 0 0 0 0 0 1 2 2 1 2 2 1 2 1 1 1 1 1 1
0 0 0 0 0 0 0 0 0 0 0 0 0 0 0 0 0 0 0 0 0 0 0 0 0 0 0 0 0 0 0 0 0 0 0 0 0 0 2 2 2 2 2 2 1 1 1 1 0
0 0 0 0 0 0 0 0 0 0 0 0 0 0 0 0 0 0 0 0 0 0 0 0 0 0 0 0 0 0 0 0 0 0 0 0 0 0 0 1 1 1 2 2 2 1 1 1 1
0 0 0 0 0 0 0 0 0 0 0 0 0 0 0 0 0 0 0 0 0 0 0 0 0 0 0 0 0 0 0 0 0 0 0 0 0 0 0 0 1 1 1 1 2 1 1 1 1
0 0 0 0 0 0 0 0 0 0 0 0 0 0 0 0 0 0 0 0 0 0 0 0 0 0 0 0 0 0 0 0 0 0 0 0 0 0 0 0 0 0 1 1 1 1 1 1 1
0 0 0 0 0 0 0 0 0 0 0 0 0 0 0 0 0 0 0 0 0 0 0 0 0 0 0 0 0 0 0 0 0 0 0 0 0 0 0 0 0 0 1 1 1 1 1 1 1
0 0 0 0 0 0 0 0 0 0 0 0 0 0 0 0 0 0 0 0 0 0 0 0 0 0 0 0 0 0 0 0 0 0 0 0 0 0 0 0 0 0 0 1 1 1 1 1 1
0 0 0 0 0 0 0 0 0 0 0 0 0 0 0 0 0 0 0 0 0 0 0 0 0 0 0 0 0 0 0 0 0 0 0 0 0 0 0 0 0 0 0 0 1 1 1 2 1
0 0 0 0 0 0 0 0 0 0 0 0 0 0 0 0 0 0 0 0 0 0 0 0 0 0 0 0 0 0 0 0 0 0 0 0 0 0 0 0 0 0 0 0 1 1 1 2 2
0 0 -0 0 0 0 0 0 0 0 0 0 0 0 0 0 0 0 0 0 0 0 0 0 0 0 0 0 0 0 0 0 0 0 0 0 0 0 0 0 1 0 0 0 1 1 1 2 2
0 0 0 0 0 0 0 0 0 0 0 0 0 0 0 0 0 0 0 0 0 0 0 0 0 0 0 0 0 0 0 0 0 0 0 0 0 0 0 0 0 0 0 0 1 1 1 1 2
0 0 0 0 0 0 0 0 0 0 0 0 0 0 0 0 0 0 0 0 0 0 0 0 0 0 0 0 0 -0 -0 -0 -0 0 0 -0 0 0 0 0 0 0 0 0 1 1 1 1 1
0 0 0 0 0 0 0 0 0 0 0 0 0 0 0 0 0 0 0 0 0 0 0 0 0 0 0 0 -0 -0 -0 -0 -0 0 0 -0 0 0 0 0 0 0 0 0 0 1 1 1 1
0 0 0 0 0 0 0 0 0 0 0 0 0 0 0 0 0 0 0 0 0 0 0 0 0 0 0 0 -0 -0 -0 -0 -0 -0 0 -0 -0 0 0 0 0 0 0 0 0 0 0 1 1
0 0 0 0 0 0 0 0 0 0 0 0 0 0 0 0 0 0 0 0 0 0 0 0 0 0 0 0 -0 -0 -0 -0 -0 -0 0 -0 -0 0 0 0 0 0 0 0 0 0 0 0 1
0 0 0 0 0 0 0 0 0 0 0 0 0 0 0 0 0 0 0 0 0 0 0 0 0 0 0 -0 -0 -0 -0 -0 -0 -0 0 0 0 0 0 0 0 0 0 0 0 0 0 0 0
Wind_Speed_500mb
6 6 5 3 7 7 5 8 2 7 6 8 3 8 16 13 12 7 4 8 5 15 22 24 24 23 19 15 13 16 11 8 6 7 11 10 10 8 9 8 4 2 1 2 4 5 5 9 14
8 7 6 4 7 9 9 5 7 8 6 3 1 3 1 11 8 5 7 1 3 12 19 25 23 23 20 17 16 16 15 11 9 10 10 11 10 9 9 7 6 3 2 1 2 3 3 7 10
7 6 5 3 4 5 5 6 6 5 10 3 3 6 7 7 7 5 3 5 4 11 20 22 19 18 17 20 18 18 15 12 12 11 11 11 12 10 9 9 7 8 6 4 2 0 1 4 7
8 4 1 8 5 6 6 7 8 1 3 11 7 1 4 10 6 10 6 6 8 10 15 18 18 18 20 18 15 15 16 13 14 15 14 13 14 12 12 11 11 13 11 9 6 3 3 2 3
6 4 6 4 6 5 6 7 9 5 5 10 10 8 5 9 11 10 5 8 8 10 12 12 16 19 18 17 16 16 15 16 17 18 18 20 21 17 15 15 16 16 14 12 10 8 7 5 3
3 4 6 3 5 6 6 11 4 7 10 12 8 11 9 9 10 10 6 6 8 8 9 12 11 18 18 17 18 18 18 20 20 21 23 24 24 26 23 19 19 18 17 16 15 13 11 10 7
3 5 4 1 4 8 6 9 12 10 9 14 7 10 7 12 12 5 4 3 4 4 3 3 10 13 15 18 18 19 19 20 22 23 27 27 28 30 30 26 25 22 21 21 21 19 16 14 12
4 5 2 2 3 8 10 6 7 14 10 9 12 7 11 21 16 9 6 6 6 6 5 7 8 11 14 19 19 21 22 22 24 26 28 31 33 33 35 31 32 30 25 24 24 25 22 19 17
5 3 3 5 1 6 10 7 8 7 9 9 11 11 9 18 17 10 8 7 8 9 10 12 14 17 20 22 25 24 25 26 26 28 30 33 34 30 34 35 34 34 34 31 27 28 28 25 24
6 3 7 7 8 9 12 13 13 9 15 11 18 15 16 21 18 11 8 6 8 15 20 25 29 30 29 32 29 30 31 31 28 27 26 27 30 32 36 39 39 38 40 37 35 31 32 32 23
7 6 6 8 8 15 15 13 11 14 8 24 29 32 29 23 18 14 10 12 13 15 20 27 33 38 39 38 41 41 37 36 36 37 33 31 31 34 37 37 40 37 38 38 35 39 36 30 28
1 6 5 4 10 15 17 15 4 16 17 15 19 22 25 24 22 20 17 16 15 16 18 20 22 27 33 45 42 46 46 43 41 37 42 44 39 34 35 37 36 35 34 33 35 40 35 35 34
3 8 11 14 10 9 9 4 5 20 17 17 19 23 24 21 19 18 18 18 19 19 21 22 23 23 24 22 34 49 51 53 55 52 46 45 45 46 41 37 42 40 39 40 37 37 36 37 37
10 12 12 9 10 11 10 3 12 13 13 19 17 20 19 18 18 15 15 19 22 21 25 28 30 32 34 35 34 33 36 46 52 58 54 50 51 51 46 44 42 42 45 45 43 41 39 40 39
5 3 10 19 18 13 15 9 10 14 19 20 16 15 18 20 21 23 22 23 25 26 28 32 35 38 39 39 41 42 42 44 46 48 50 55 52 55 53 50 49 47 48 45 44 39 41 42 40
5 2 11 13 18 9 18 18 15 19 28 27 8 5 12 20 21 21 22 22 25 27 33 37 39 40 40 41 43 44 45 46 45 48 50 49 51 56 59 62 66 57 54 50 49 42 44 45 41
10 12 16 14 9 16 14 27 30 27 37 22 9 10 14 18 21 23 25 27 30 33 35 39 42 44 46 43 42 41 40 40 41 45 48 50 52 55 55 56 63 66 65 59 56 57 52 47 49
19 17 16 23 17 26 31 29 22 24 18 9 9 12 15 17 21 22 24 27 31 35 36 38 40 44 47 47 46 45 41 35 33 34 35 43 46 49 51 54 53 57 56 62 57 52 55 54 52
15 23 31 29 22 32 27 38 37 3 7 9 6 7 9 11 14 17 21 25 28 31 36 43 48 52 51 47 43 48 46 51 40 36 38 43 41 42 48 47 54 45 52 62 62 62 58 60 53
21 23 19 15 16 30 34 41 12 1 3 4 8 9 12 12 16 20 23 28 32 35 38 42 42 43 42 39 40 41 47 51 55 59 49 44 45 44 40 43 47 46 49 55 56 64 61 60 60
7 13 21 27 38 42 27 27 12 7 6 4 3 11 14 18 20 22 26 29 31 36 40 42 41 40 36 39 38 38 39 39 40 39 46 50 47 46 41 39 42 47 43 48 52 57 67 66 68
16 16 25 32 35 20 20 17 6 5 5 7 13 17 16 18 23 30 39 39 33 36 37 35 36 38 37 39 38 39 39 43 43 44 44 47 46 43 38 37 30 37 43 43 50 55 62 59 67
9 28 29 40 31 17 8 12 7 8 5 16 25 23 22 25 28 39 47 37 32 35 36 35 34 34 34 38 39 40 42 43 46 45 47 46 40 42 42 37 35 36 40 45 46 56 62 68 62
24 24 41 8 12 11 15 7 16 10 14 19 25 31 34 39 42 48 44 35 37 33 32 33 32 30 30 38 40 43 49 53 52 49 50 44 43 42 42 37 36 43 42 45 42 58 64 69 65
26 24 15 11 10 19 7 20 27 17 13 13 25 45 40 43 55 57 52 38 37 35 33 32 32 33 32 36 42 48 47 52 52 51 47 50 46 42 44 38 39 43 44 41 41 52 63 65 68
12 14 7 14 20 36 35 17 6 13 9 17 43 47 53 62 58 55 45 34 38 39 34 31 33 35 35 37 42 48 45 47 51 53 53 50 46 45 48 49 44 47 49 44 44 54 62 64 69
9 12 13 23 29 20 14 23 21 6 29 56 39 54 62 61 59 54 44 39 46 43 36 34 36 36 37 40 47 46 48 49 57 63 59 48 50 51 49 46 45 46 53 49 51 57 67 67 68
5 10 8 9 12 30 24 41 25 30 46 40 44 60 58 56 56 49 44 42 42 36 35 38 41 43 41 39 42 46 50 52 59 67 66 51 52 49 48 45 43 45 45 45 47 60 70 66 64
13 9 9 11 15 21 30 17 35 46 35 35 58 56 50 48 47 43 37 35 33 34 37 41 46 49 46 44 45 49 51 54 62 68 66 54 47 47 43 44 40 37 35 40 39 52 59 70 70
1 5 9 13 30 27 28 36 30 27 49 52 48 48 43 40 41 40 41 42 42 44 47 49 51 52 50 46 45 47 49 54 62 66 63 52 40 42 41 41 38 36 32 43 46 52 54 54 61
Wind_Direction_500mb
23 7 8 360 223 244 157 118 87 134 143 41 75 357 42 25 8 27 355 147 173 184 190 199 195 193 189 179 193 209 220 238 226 203 191 185 182 184 178 191 199 160 68 58 86 106 88 51 49
7 358 3 252 249 217 127 116 139 55 29 250 340 292 234 66 56 65 41 29 107 175 191 194 193 194 187 195 199 209 234 239 237 218 205 199 200 203 202 192 228 257 300 341 72 110 74 49 48
5 9 289 267 249 260 121 123 77 36 24 355 313 7 8 50 45 50 330 212 98 167 177 194 199 193 193 202 200 215 236 235 247 232 224 222 221 228 229 222 232 255 279 277 273 10 63 35 42
352 326 297 251 151 90 68 90 6 360 88 39 355 253 73 32 28 347 329 147 127 158 176 211 203 197 213 219 225 230 234 251 257 243 231 233 236 248 253 241 225 252 270 266 262 263 263 326 13
344 257 231 209 125 100 97 36 7 28 55 29 2 38 45 30 15 12 57 119 127 151 178 211 209 217 225 232 238 249 256 263 261 247 236 237 240 248 258 257 242 250 260 264 270 260 254 258 276
251 273 240 238 119 94 81 14 6 32 33 24 15 346 60 14 26 22 65 108 134 152 158 191 210 219 233 242 247 253 260 263 258 249 242 248 247 254 250 253 251 250 250 261 272 265 259 257 242
340 304 36 81 118 141 49 359 30 12 24 41 4 351 48 41 357 360 71 107 132 142 136 208 213 231 231 241 246 257 266 269 260 252 248 250 251 257 250 253 252 250 248 251 267 271 264 260 261
29 296 123 47 86 90 31 38 24 19 50 1 359 26 350 334 324 294 311 323 321 314 299 283 260 245 248 256 259 255 262 270 270 263 257 256 259 257 254 252 253 253 252 253 257 262 265 261 255
22 260 49 53 352 72 29 5 29 331 328 11 15 345 356 5 3 341 309 309 311 293 285 279 273 266 257 256 261 274 270 268 269 267 266 262 257 259 259 254 251 252 253 252 252 255 259 261 257
357 344 51 28 22 10 356 350 339 316 356 1 347 352 333 336 339 339 329 309 302 277 272 266 258 248 253 260 263 268 269 271 265 263 260 261 256 254 249 247 255 254 255 255 252 249 254 257 244
16 40 49 62 27 349 331 328 345 339 26 4 339 338 344 350 357 2 8 5 321 291 278 276 272 269 260 257 264 261 264 268 269 268 262 259 253 252 258 251 255 253 253 249 255 248 245 242 242
191 64 19 14 348 324 323 321 12 61 24 15 14 13 14 23 22 24 18 5 1 333 304 292 285 280 274 259 251 257 260 260 263 268 263 267 264 253 248 249 245 246 244 245 242 246 243 243 242
45 23 337 325 334 349 320 346 107 63 46 32 37 32 30 29 25 17 20 8 1 356 331 320 310 306 301 298 268 257 256 255 256 257 262 263 260 261 254 253 252 247 244 243 242 248 243 243 242
343 324 331 32 23 44 342 70 181 51 34 23 30 39 40 40 34 20 1 1 6 350 340 334 326 321 319 315 308 296 279 267 262 260 258 259 257 258 259 256 256 253 254 257 252 241 244 240 237
327 16 147 49 24 34 334 203 169 13 1 357 3 44 49 47 42 38 28 19 11 6 357 344 341 336 330 323 315 309 301 293 285 273 265 257 252 256 256 254 254 257 255 256 260 248 241 241 237
2 163 342 33 4 26 349 285 175 341 330 328 324 79 74 56 45 34 25 18 8 0 352 345 340 336 332 329 325 321 315 308 297 290 284 275 264 254 253 255 254 254 255 257 257 247 235 234 235
45 330 332 329 75 340 343 286 281 322 331 328 352 38 48 44 34 21 12 7 1 358 355 352 348 343 337 332 325 317 315 315 316 308 297 288 280 270 262 252 257 254 253 253 255 251 243 242 238
329 323 307 306 330 334 307 291 305 351 350 32 59 54 44 26 15 9 7 2 356 352 351 350 347 342 337 333 327 322 321 313 314 314 310 304 297 287 276 266 260 254 252 249 247 242 245 240 240
315 305 305 320 336 325 312 300 304 360 118 111 87 53 41 26 10 3 360 359 357 354 348 342 337 333 329 325 324 319 314 311 313 312 310 308 304 300 291 281 264 255 256 254 247 246 244 241 237
323 316 340 308 330 320 309 301 314 99 166 49 40 41 22 11 3 359 1 355 350 346 344 342 343 339 338 334 324 318 313 306 299 301 299 304 307 302 295 293 283 255 250 248 245 244 239 240 237
16 2 333 308 314 293 324 290 161 149 135 73 26 355 356 356 354 349 345 343 340 342 342 343 343 341 339 335 332 329 322 318 312 302 299 300 302 299 298 293 290 274 257 251 246 244 239 238 236
319 348 314 305 317 316 11 297 140 151 150 160 354 359 355 351 340 342 336 328 332 336 338 341 341 341 339 338 334 330 327 322 316 312 306 303 302 302 288 288 279 279 268 265 248 241 237 221 228
337 323 297 295 290 297 138 266 108 133 213 12 8 360 348 339 329 328 323 312 318 326 332 338 338 340 345 350 347 341 333 321 311 307 307 307 302 300 286 285 279 278 277 260 255 239 238 226 227
323 305 293 229 258 250 105 316 288 20 359 3 12 354 337 328 319 316 317 304 305 312 320 329 331 335 340 342 344 343 343 335 328 316 307 304 301 299 294 291 284 276 283 263 261 238 236 231 220
351 341 324 301 288 316 93 302 273 56 38 0 349 339 333 329 320 309 305 301 302 302 311 322 325 325 325 329 335 339 339 340 332 326 311 306 303 297 297 291 280 280 286 258 253 240 233 233 220
337 355 302 295 311 304 314 263 50 44 8 345 323 335 328 327 324 318 306 298 315 303 299 310 316 319 319 321 326 335 333 334 332 329 317 303 301 296 298 294 283 284 284 259 245 237 234 226 223
28 309 357 283 277 288 246 274 264 212 339 338 337 334 326 325 322 318 313 291 305 304 292 301 309 312 312 315 321 325 328 329 332 330 323 306 304 303 297 292 291 283 284 257 236 230 228 220 214
353 338 272 230 279 293 292 304 304 336 326 327 327 328 325 326 327 325 323 316 312 307 301 304 307 307 306 310 316 318 322 326 329 332 326 314 310 309 303 296 293 286 282 249 233 226 227 212 209
315 273 230 291 276 289 302 287 339 318 327 323 322 323 322 326 331 335 341 341 334 327 322 319 318 316 310 309 311 315 318 325 330 329 329 317 312 311 308 302 294 277 265 229 218 217 215 200 201
280 311 281 279 288 277 283 283 312 312 315 323 321 319 317 323 330 334 334 332 331 327 324 323 321 319 314 310 308 311 318 321 329 327 328 324 310 312 303 302 283 267 253 213 203 204 201 203 192
Wind_Speed_850mb
6 6 5 3 7 7 5 8 2 7 6 8 3 8 16 13 12 7 4 8 5 15 22 24 24 23 19 15 13 16 11 8 6 7 11 10 10 8 9 8 4 2 1 2 4 5 5 9 14
8 7 6 4 7 9 9 5 7 8 6 3 1 3 1 11 8 5 7 1 3 12 19 25 23 23 20 17 16 16 15 11 9 10 10 11 10 9 9 7 6 3 2 1 2 3 3 7 10
7 6 5 3 4 5 5 6 6 5 10 3 3 6 7 7 7 5 3 5 4 11 20 22 19 18 17 20 18 18 15 12 12 11 11 11 12 10 9 9 7 8 6 4 2 0 1 4 7
8 4 1 8 5 6 6 7 8 1 3 11 7 1 4 10 6 10 6 6 8 10 15 18 18 18 20 18 15 15 16 13 14 15 14 13 14 12 12 11 11 13 11 9 6 3 3 2 3
6 4 6 4 6 5 6 7 9 5 5 10 10 8 5 9 11 10 5 8 8 10 12 12 16 19 18 17 16 16 15 16 17 18 18 20 21 17 15 15 16 16 14 12 10 8 7 5 3
3 4 6 3 5 6 6 11 4 7 10 12 8 11 9 9 10 10 6 6 8 8 9 12 11 18 18 17 18 18 18 20 20 21 23 24 24 26 23 19 19 18 17 16 15 13 11 10 7
3 5 4 1 4 8 6 9 12 10 9 14 7 10 7 12 12 5 4 3 4 4 3 3 10 13 15 18 18 19 19 20 22 23 27 27 28 30 30 26 25 22 21 21 21 19 16 14 12
4 5 2 2 3 8 10 6 7 14 10 9 12 7 11 21 16 9 6 6 6 6 5 7 8 11 14 19 19 21 22 22 24 26 28 31 33 33 35 31 32 30 25 24 24 25 22 19 17
5 3 3 5 1 6 10 7 8 7 9 9 11 11 9 18 17 10 8 7 8 9 10 12 14 17 20 22 25 24 25 26 26 28 30 33 34 30 34 35 34 34 34 31 27 28 28 25 24
6 3 7 7 8 9 12 13 13 9 15 11 18 15 16 21 18 11 8 6 8 15 20 25 29 30 29 32 29 30 31 31 28 27 26 27 30 32 36 39 39 38 40 37 35 31 32 32 23
7 6 6 8 8 15 15 13 11 14 8 24 29 32 29 23 18 14 10 12 13 15 20 27 33 38 39 38 41 41 37 36 36 37 33 31 31 34 37 37 40 37 38 38 35 39 36 30 28
1 6 5 4 10 15 17 15 4 16 17 15 19 22 25 24 22 20 17 16 15 16 18 20 22 27 33 45 42 46 46 43 41 37 42 44 39 34 35 37 36 35 34 33 35 40 35 35 34
3 8 11 14 10 9 9 4 5 20 17 17 19 23 24 21 19 18 18 18 19 19 21 22 23 23 24 22 34 49 51 53 55 52 46 45 45 46 41 37 42 40 39 40 37 37 36 37 37
10 12 12 9 10 11 10 3 12 13 13 19 17 20 19 18 18 15 15 19 22 21 25 28 30 32 34 35 34 33 36 46 52 58 54 50 51 51 46 44 42 42 45 45 43 41 39 40 39
5 3 10 19 18 13 15 9 10 14 19 20 16 15 18 20 21 23 22 23 25 26 28 32 35 38 39 39 41 42 42 44 46 48 50 55 52 55 53 50 49 47 48 45 44 39 41 42 40
5 2 11 13 18 9 18 18 15 19 28 27 8 5 12 20 21 21 22 22 25 27 33 37 39 40 40 41 43 44 45 46 45 48 50 49 51 56 59 62 66 57 54 50 49 42 44 45 41
10 12 16 14 9 16 14 27 30 27 37 22 9 10 14 18 21 23 25 27 30 33 35 39 42 44 46 43 42 41 40 40 41 45 48 50 52 55 55 56 63 66 65 59 56 57 52 47 49
19 17 16 23 17 26 31 29 22 24 18 9 9 12 15 17 21 22 24 27 31 35 36 38 40 44 47 47 46 45 41 35 33 34 35 43 46 49 51 54 53 57 56 62 57 52 55 54 52
15 23 31 29 22 32 27 38 37 3 7 9 6 7 9 11 14 17 21 25 28 31 36 43 48 52 51 47 43 48 46 51 40 36 38 43 41 42 48 47 54 45 52 62 62 62 58 60 53
21 23 19 15 16 30 34 41 12 1 3 4 8 9 12 12 16 20 23 28 32 35 38 42 42 43 42 39 40 41 47 51 55 59 49 44 45 44 40 43 47 46 49 55 56 64 61 60 60
7 13 21 27 38 42 27 27 12 7 6 4 3 11 14 18 20 22 26 29 31 36 40 42 41 40 36 39 38 38 39 39 40 39 46 50 47 46 41 39 42 47 43 48 52 57 67 66 68
16 16 25 32 35 20 20 17 6 5 5 7 13 17 16 18 23 30 39 39 33 36 37 35 36 38 37 39 38 39 39 43 43 44 44 47 46 43 38 37 30 37 43 43 50 55 62 59 67
9 28 29 40 31 17 8 12 7 8 5 16 25 23 22 25 28 39 47 37 32 35 36 35 34 34 34 38 39 40 42 43 46 45 47 46 40 42 42 37 35 36 40 45 46 56 62 68 62
24 24 41 8 12 11 15 7 16 10 14 19 25 31 34 39 42 48 44 35 37 33 32 33 32 30 30 38 40 43 49 53 52 49 50 44 43 42 42 37 36 43 42 45 42 58 64 69 65
26 24 15 11 10 19 7 20 27 17 13 13 25 45 40 43 55 57 52 38 37 35 33 32 32 33 32 36 42 48 47 52 52 51 47 50 46 42 44 38 39 43 44 41 41 52 63 65 68
12 14 7 14 20 36 35 17 6 13 9 17 43 47 53 62 58 55 45 34 38 39 34 31 33 35 35 37 42 48 45 47 51 53 53 50 46 45 48 49 44 47 49 44 44 54 62 64 69
9 12 13 23 29 20 14 23 21 6 29 56 39 54 62 61 59 54 44 39 46 43 36 34 36 36 37 40 47 46 48 49 57 63 59 48 50 51 49 46 45 46 53 49 51 57 67 67 68
5 10 8 9 12 30 24 41 25 30 46 40 44 60 58 56 56 49 44 42 42 36 35 38 41 43 41 39 42 46 50 52 59 67 66 51 52 49 48 45 43 45 45 45 47 60 70 66 64
13 9 9 11 15 21 30 17 35 46 35 35 58 56 50 48 47 43 37 35 33 34 37 41 46 49 46 44 45 49 51 54 62 68 66 54 47 47 43 44 40 37 35 40 39 52 59 70 70
1 5 9 13 30 27 28 36 30 27 49 52 48 48 43 40 41 40 41 42 42 44 47 49 51 52 50 46 45 47 49 54 62 66 63 52 40 42 41 41 38 36 32 43 46 52 54 54 61
Wind_Direction_850mb
23 7 8 360 223 244 157 118 87 134 143 41 75 357 42 25 8 27 355 147 173 184 190 199 195 193 189 179 193 209 220 238 226 203 191 185 182 184 178 191 199 160 68 58 86 106 88 51 49
7 358 3 252 249 217 127 116 139 55 29 250 340 292 234 66 56 65 41 29 107 175 191 194 193 194 187 195 199 209 234 239 237 218 205 199 200 203 202 192 228 257 300 341 72 110 74 49 48
5 9 289 267 249 260 121 123 77 36 24 355 313 7 8 50 45 50 330 212 98 167 177 194 199 193 193 202 200 215 236 235 247 232 224 222 221 228 229 222 232 255 279 277 273 10 63 35 42
352 326 297 251 151 90 68 90 6 360 88 39 355 253 73 32 28 347 329 147 127 158 176 211 203 197 213 219 225 230 234 251 257 243 231 233 236 248 253 241 225 252 270 266 262 263 263 326 13
344 257 231 209 125 100 97 36 7 28 55 29 2 38 45 30 15 12 57 119 127 151 178 211 209 217 225 232 238 249 256 263 261 247 236 237 240 248 258 257 242 250 260 264 270 260 254 258 276
251 273 240 238 119 94 81 14 6 32 33 24 15 346 60 14 26 22 65 108 134 152 158 191 210 219 233 242 247 253 260 263 258 249 242 248 247 254 250 253 251 250 250 261 272 265 259 257 242
340 304 36 81 118 141 49 359 30 12 24 41 4 351 48 41 357 360 71 107 132 142 136 208 213 231 231 241 246 257 266 269 260 252 248 250 251 257 250 253 252 250 248 251 267 271 264 260 261
29 296 123 47 86 90 31 38 24 19 50 1 359 26 350 334 324 294 311 323 321 314 299 283 260 245 248 256 259 255 262 270 270 263 257 256 259 257 254 252 253 253 252 253 257 262 265 261 255
22 260 49 53 352 72 29 5 29 331 328 11 15 345 356 5 3 341 309 309 311 293 285 279 273 266 257 256 261 274 270 268 269 267 266 262 257 259 259 254 251 252 253 252 252 255 259 261 257
357 344 51 28 22 10 356 350 339 316 356 1 347 352 333 336 339 339 329 309 302 277 272 266 258 248 253 260 263 268 269 271 265 263 260 261 256 254 249 247 255 254 255 255 252 249 254 257 244
16 40 49 62 27 349 331 328 345 339 26 4 339 338 344 350 357 2 8 5 321 291 278 276 272 269 260 257 264 261 264 268 269 268 262 259 253 252 258 251 255 253 253 249 255 248 245 242 242
191 64 19 14 348 324 323 321 12 61 24 15 14 13 14 23 22 24 18 5 1 333 304 292 285 280 274 259 251 257 260 260 263 268 263 267 264 253 248 249 245 246 244 245 242 246 243 243 242
45 23 337 325 334 349 320 346 107 63 46 32 37 32 30 29 25 17 20 8 1 356 331 320 310 306 301 298 268 257 256 255 256 257 262 263 260 261 254 253 252 247 244 243 242 248 243 243 242
343 324 331 32 23 44 342 70 181 51 34 23 30 39 40 40 34 20 1 1 6 350 340 334 326 321 319 315 308 296 279 267 262 260 258 259 257 258 259 256 256 253 254 257 252 241 244 240 237
327 16 147 49 24 34 334 203 169 13 1 357 3 44 49 47 42 38 28 19 11 6 357 344 341 336 330 323 315 309 301 293 285 273 265 257 252 256 256 254 254 257 255 256 260 248 241 241 237
2 163 342 33 4 26 349 285 175 341 330 328 324 79 74 56 45 34 25 18 8 0 352 345 340 336 332 329 325 321 315 308 297 290 284 275 264 254 253 255 254 254 255 257 257 247 235 234 235
45 330 332 329 75 340 343 286 281 322 331 328 352 38 48 44 34 21 12 7 1 358 355 352 348 343 337 332 325 317 315 315 316 308 297 288 280 270 262 252 257 254 253 253 255 251 243 242 238
329 323 307 306 330 334 307 291 305 351 350 32 59 54 44 26 15 9 7 2 356 352 351 350 347 342 337 333 327 322 321 313 314 314 310 304 297 287 276 266 260 254 252 249 247 242 245 240 240
315 305 305 320 336 325 312 300 304 360 118 111 87 53 41 26 10 3 360 359 357 354 348 342 337 333 329 325 324 319 314 311 313 312 310 308 304 300 291 281 264 255 256 254 247 246 244 241 237
323 316 340 308 330 320 309 301 314 99 166 49 40 41 22 11 3 359 1 355 350 346 344 342 343 339 338 334 324 318 313 306 299 301 299 304 307 302 295 293 283 255 250 248 245 244 239 240 237
16 2 333 308 314 293 324 290 161 149 135 73 26 355 356 356 354 349 345 343 340 342 342 343 343 341 339 335 332 329 322 318 312 302 299 300 302 299 298 293 290 274 257 251 246 244 239 238 236
319 348 314 305 317 316 11 297 140 151 150 160 354 359 355 351 340 342 336 328 332 336 338 341 341 341 339 338 334 330 327 322 316 312 306 303 302 302 288 288 279 279 268 265 248 241 237 221 228
337 323 297 295 290 297 138 266 108 133 213 12 8 360 348 339 329 328 323 312 318 326 332 338 338 340 345 350 347 341 333 321 311 307 307 307 302 300 286 285 279 278 277 260 255 239 238 226 227
323 305 293 229 258 250 105 316 288 20 359 3 12 354 337 328 319 316 317 304 305 312 320 329 331 335 340 342 344 343 343 335 328 316 307 304 301 299 294 291 284 276 283 263 261 238 236 231 220
351 341 324 301 288 316 93 302 273 56 38 0 349 339 333 329 320 309 305 301 302 302 311 322 325 325 325 329 335 339 339 340 332 326 311 306 303 297 297 291 280 280 286 258 253 240 233 233 220
337 355 302 295 311 304 314 263 50 44 8 345 323 335 328 327 324 318 306 298 315 303 299 310 316 319 319 321 326 335 333 334 332 329 317 303 301 296 298 294 283 284 284 259 245 237 234 226 223
28 309 357 283 277 288 246 274 264 212 339 338 337 334 326 325 322 318 313 291 305 304 292 301 309 312 312 315 321 325 328 329 332 330 323 306 304 303 297 292 291 283 284 257 236 230 228 220 214
353 338 272 230 279 293 292 304 304 336 326 327 327 328 325 326 327 325 323 316 312 307 301 304 307 307 306 310 316 318 322 326 329 332 326 314 310 309 303 296 293 286 282 249 233 226 227 212 209
315 273 230 291 276 289 302 287 339 318 327 323 322 323 322 326 331 335 341 341 334 327 322 319 318 316 310 309 311 315 318 325 330 329 329 317 312 311 308 302 294 277 265 229 218 217 215 200 201
280 311 281 279 288 277 283 283 312 312 315 323 321 319 317 323 330 334 334 332 331 327 324 323 321 319 314 310 308 311 318 321 329 327 328 324 310 312 303 302 283 267 253 213 203 204 201 203 192